Regional Weather Roundup
Issued by NWS

Home | Current Version | Previous Version | Text Only | Print | Product List | Glossary Off
Versions: 1 2 3 4 5 6 7 8 9 10 11 12 13 14 15 16 17 18 19 20 21 22 23 24 25 26 27 28 29 30 31 32 33 34 35 36 37 38 39 40 41 42 43 44 45 46 47 48 49 50

000
ASUS45 KCYS 011010
RWRWY

WYOMING REGIONAL WEATHER ROUNDUP
NATIONAL WEATHER SERVICE CHEYENNE WY
400 AM MDT TUE SEP 01 2015

NOTE:  "FAIR" INDICATES FEW OR NO CLOUDS BELOW 12,000 FEET
WITH NO SIGNIFICANT WEATHER AND/OR OBSTRUCTIONS TO VISIBILITY.

WYZ001-011100-
YELLOWSTONE NATIONAL PARK

CITY           SKY/WX    TMP DP  RH WIND       PRES   REMARKS
LK YELLOWSTONE   N/A     33  29  85 CALM      30.20F
W YELLOWSTONE  NOT AVBL

$$
WYZ002>013-054>058-071-098>099-011100-
NORTHERN WYOMING

CITY           SKY/WX    TMP DP  RH WIND       PRES   REMARKS
JACKSON        FAIR      37  32  81 N3        30.14S
CODY           FAIR      54  27  35 CALM      29.98R
GREYBULL       FAIR      56  29  35 SE3       29.92R
WORLAND        FAIR      53  32  44 S6        29.93S
SHERIDAN       FAIR      49  41  74 S7        29.91S
BUFFALO        FAIR      59  37  44 SW8       29.97S
GILLETTE       FAIR      53  47  79 CALM      29.93S
HULETT         FAIR      55  54  94 CALM      29.94S
NEWCASTLE      FAIR      63  43  48 MISG      29.97R

$$
WYZ014>020-022>026-101>103-011100-
CENTRAL WYOMING

CITY           SKY/WX    TMP DP  RH WIND       PRES   REMARKS
BIG PINEY      FAIR      37  21  52 E6        30.19R WCI  32
PINEDALE       FAIR      34  28  80 W6        30.21R WCI  29
DUBOIS         FAIR      45  25  45 N5        30.14S
LANDER         FAIR      61  25  25 SW3       30.02S
RIVERTON       FAIR      58  31  35 S3        30.03S
CASPER         FAIR      60  41  49 SW13      30.04S
DOUGLAS        FAIR      51  40  65 CALM      30.03R

$$
WYZ021-027>030-104>119-011100-
SOUTHERN WYOMING

CITY           SKY/WX    TMP DP  RH WIND       PRES   REMARKS
EVANSTON       FAIR      55  40  56 SE7       30.18S
KEMMERER       FAIR      43  30  61 N9        30.20S
FORT BRIDGER   SUNNY     59  41  51 W10       30.20S
ROCK SPRINGS   FAIR      57  40  52 E3        30.16S
DIXON          FAIR      50  44  81 SE5       30.23S
RAWLINS        FAIR      55  39  54 NE6       30.18R
SARATOGA       FAIR      52  43  71 SE12      30.22S
LARAMIE        FAIR      47  41  80 S9        30.22R
CHEYENNE       FAIR      55  46  71 SW3       30.13S
TORRINGTON     FAIR      58  49  72 CALM      29.99S
PINE BLUFFS    FAIR      50  45  81 SW3       30.09S

$$



USA.gov is the U.S. government's official web portal to all federal, state and local government web resources and services.